| time (UTC) | temp F | wind direction | speed knots | gust knots | rain 1hr in | rain 24hr in | rain mn in | humidity % | barometer mb |
| 20260506224549 | 55 | 306 | 1.7 | 3.5 | 0.00 | 0.24 | 0.24 | 98 | 1013.9 |
| 20260506223047 | 55 | 0 | 0.0 | 2.6 | 0.00 | 0.24 | 0.24 | 97 | 1014.5 |
| 20260506221556 | 55 | 0 | 1.7 | 3.5 | 0.00 | 0.24 | 0.24 | 97 | 1014.3 |
| 20260506220059 | 55 | 0 | 0.0 | 3.5 | 0.00 | 0.24 | 0.24 | 97 | 1013.9 |
| 20260506214551 | 56 | 336 | 0.9 | 4.3 | 0.00 | 0.24 | 0.24 | 97 | 1014.1 |
| 20260506213051 | 56 | 0 | 0.0 | 2.6 | 0.00 | 0.24 | 0.24 | 97 | 1013.2 |
| 20260506211601 | 56 | 315 | 0.0 | 2.6 | 0.00 | 0.24 | 0.24 | 97 | 1013.1 |
| 20260506210047 | 57 | 315 | 0.9 | 2.6 | 0.00 | 0.24 | 0.24 | 97 | 1013.4 |
| 20260506204548 | 57 | 338 | 0.9 | 2.6 | 0.00 | 0.24 | 0.24 | 97 | 1013.0 |
| 20260506203047 | 57 | 0 | 0.0 | 4.3 | 0.00 | 0.24 | 0.24 | 97 | 1013.3 |
| 20260506201545 | 58 | 321 | 0.9 | 2.6 | 0.00 | 0.24 | 0.24 | 97 | 1012.7 |
| 20260506200047 | 59 | 321 | 0.0 | 3.5 | 0.00 | 0.24 | 0.24 | 98 | 1012.9 |
| 20260506194554 | 59 | 324 | 0.9 | 2.6 | 0.00 | 0.24 | 0.24 | 97 | 1013.2 |
| 20260506193048 | 60 | 324 | 0.9 | 4.3 | 0.00 | 0.24 | 0.24 | 98 | 1012.9 |
| 20260506191548 | 61 | 323 | 2.6 | 4.3 | 0.00 | 0.24 | 0.24 | 97 | 1013.5 |
| 20260506190047 | 61 | 298 | 0.9 | 3.5 | 0.00 | 0.24 | 0.24 | 98 | 1013.5 |
| 20260506184556 | 61 | 286 | 0.9 | 3.5 | 0.00 | 0.24 | 0.24 | 97 | 1013.3 |
| 20260506183053 | 62 | 0 | 0.9 | 2.6 | 0.00 | 0.24 | 0.24 | 97 | 1013.1 |
| 20260506181546 | 62 | 0 | 0.0 | 1.7 | 0.00 | 0.24 | 0.24 | 97 | 1012.7 |
| 20260506180047 | 62 | 90 | 0.0 | 0.0 | 0.00 | 0.24 | 0.24 | 98 | 1012.7 |
| 20260506174549 | 62 | 0 | 0.0 | 0.0 | 0.00 | 0.24 | 0.24 | 98 | 1013.1 |
| 20260506173104 | 62 | 325 | 1.7 | 4.3 | 0.00 | 0.24 | 0.24 | 98 | 1013.4 |
| 20260506171552 | 62 | 0 | 0.0 | 4.3 | 0.01 | 0.24 | 0.24 | 98 | 1013.4 |
| 20260506164558 | 61 | 267 | 0.9 | 3.5 | 0.01 | 0.24 | 0.24 | 99 | 1013.1 |
| 20260506163045 | 61 | 318 | 2.6 | 4.3 | 0.01 | 0.24 | 0.24 | 97 | 1013.2 |
| 20260506161548 | 62 | 325 | 2.6 | 6.1 | 0.01 | 0.23 | 0.23 | 97 | 1013.3 |
| 20260506160059 | 64 | 309 | 2.6 | 7.8 | 0.01 | 0.23 | 0.23 | 94 | 1012.9 |
| 20260506154555 | 67 | 226 | 1.7 | 4.3 | 0.01 | 0.23 | 0.23 | 97 | 1012.5 |
| 20260506153047 | 67 | 0 | 1.7 | 4.3 | 0.02 | 0.23 | 0.23 | 98 | 1012.2 |
| 20260506151545 | 66 | 244 | 0.9 | 6.1 | 0.01 | 0.22 | 0.22 | 99 | 1011.9 |
| 20260506150053 | 65 | 228 | 0.9 | 8.7 | 0.02 | 0.22 | 0.22 | 99 | 1011.9 |
| 20260506144547 | 64 | 164 | 3.5 | 7.0 | 0.03 | 0.22 | 0.22 | 99 | 1011.2 |
| 20260506143049 | 64 | 178 | 0.9 | 6.1 | 0.02 | 0.21 | 0.21 | 99 | 1011.4 |
| 20260506141603 | 63 | 163 | 1.7 | 6.1 | 0.02 | 0.21 | 0.21 | 99 | 1011.6 |
| 20260506140048 | 63 | 134 | 2.6 | 6.1 | 0.02 | 0.20 | 0.20 | 99 | 1011.1 |
| 20260506134548 | 63 | 259 | 1.7 | 6.1 | 0.01 | 0.19 | 0.19 | 98 | 1012.5 |
| 20260506133041 | 64 | 234 | 1.7 | 4.3 | 0.02 | 0.19 | 0.19 | 98 | 1012.7 |
| 20260506131547 | 64 | 233 | 2.6 | 4.3 | 0.02 | 0.19 | 0.19 | 98 | 1012.3 |
| 20260506130047 | 63 | 207 | 0.9 | 3.5 | 0.02 | 0.18 | 0.18 | 98 | 1011.6 |
| 20260506124546 | 63 | 0 | 1.7 | 6.1 | 0.03 | 0.18 | 0.18 | 98 | 1011.3 |
| 20260506123046 | 63 | 217 | 2.6 | 6.1 | 0.04 | 0.17 | 0.17 | 98 | 1011.7 |
| 20260506121553 | 64 | 219 | 1.7 | 4.3 | 0.05 | 0.17 | 0.17 | 98 | 1010.8 |
| 20260506120118 | 64 | 225 | 1.7 | 16.5 | 0.06 | 0.16 | 0.16 | 98 | 1010.6 |
| 20260506114547 | 63 | 0 | 1.7 | 7.8 | 0.05 | 0.14 | 0.14 | 98 | 1010.1 |
| 20260506113046 | 63 | 131 | 1.7 | 6.1 | 0.06 | 0.13 | 0.13 | 98 | 1010.5 |
| 20260506111547 | 63 | 243 | 1.7 | 4.3 | 0.07 | 0.12 | 0.12 | 98 | 1010.8 |
| 20260506110056 | 63 | 225 | 0.9 | 5.2 | 0.07 | 0.10 | 0.10 | 97 | 1010.4 |
| 20260506104550 | 63 | 223 | 1.7 | 7.0 | 0.08 | 0.09 | 0.09 | 97 | 1010.4 |
| 20260506103053 | 63 | 0 | 0.0 | 2.6 | 0.07 | 0.07 | 0.07 | 96 | 1010.2 |
| 20260506101556 | 64 | 0 | 0.0 | 2.6 | 0.05 | 0.05 | 0.05 | 95 | 1009.8 |
| 20260506100043 | 64 | 239 | 1.7 | 6.1 | 0.03 | 0.03 | 0.03 | 93 | 1010.1 |
| 20260506094549 | 65 | 222 | 2.6 | 7.0 | 0.01 | 0.01 | 0.01 | 89 | 1009.6 |
| 20260506093050 | 68 | 254 | 2.6 | 7.8 | 0.00 | 0.00 | 0.00 | 82 | 1009.5 |
| 20260506091545 | 68 | 202 | 3.5 | 9.6 | 0.00 | 0.00 | 0.00 | 79 | 1009.2 |
| 20260506090048 | 69 | 216 | 3.5 | 9.6 | 0.00 | 0.00 | 0.00 | 78 | 1008.8 |
| 20260506084548 | 70 | 252 | 2.6 | 11.3 | 0.00 | 0.00 | 0.00 | 74 | 1008.7 |
| 20260506083049 | 70 | 227 | 3.5 | 7.8 | 0.00 | 0.00 | 0.00 | 73 | 1008.5 |
| 20260506081550 | 70 | 215 | 3.5 | 10.4 | 0.00 | 0.00 | 0.00 | 72 | 1008.7 |
| 20260506073054 | 69 | 201 | 3.5 | 7.8 | 0.00 | 0.00 | 0.00 | 71 | 1008.3 |
| 20260506071553 | 69 | 200 | 2.6 | 7.8 | 0.00 | 0.00 | 0.00 | 70 | 1008.2 |
| 20260506070107 | 69 | 179 | 1.7 | 8.7 | 0.00 | 0.00 | 0.00 | 70 | 1008.6 |
| 20260506061548 | 69 | 0 | 1.7 | 9.6 | 0.00 | 0.00 | 0.00 | 68 | 1009.2 |
| 20260506044557 | 69 | 152 | 3.5 | 10.4 | 0.00 | 0.00 | 0.00 | 68 | 1009.8 |
| 20260506043048 | 69 | 164 | 3.5 | 8.7 | 0.00 | 0.00 | 0.00 | 68 | 1010.1 |
| 20260506041552 | 68 | 202 | 2.6 | 12.2 | 0.00 | 0.00 | 0.00 | 68 | 1010.2 |
| 20260506040048 | 68 | 155 | 2.6 | 10.4 | 0.00 | 0.00 | 0.00 | 68 | 1010.1 |
| 20260506034545 | 68 | 162 | 3.5 | 11.3 | 0.00 | 0.00 | 0.00 | 68 | 1010.3 |
| 20260506033051 | 68 | 145 | 0.9 | 7.0 | 0.00 | 0.00 | 0.00 | 68 | 1010.4 |
| 20260506031556 | 68 | 148 | 1.7 | 7.8 | 0.00 | 0.00 | 0.00 | 67 | 1010.4 |
| 20260506030105 | 68 | 137 | 1.7 | 7.0 | 0.00 | 0.00 | 0.00 | 66 | 1010.4 |
| 20260506024549 | 68 | 134 | 0.9 | 7.8 | 0.00 | 0.00 | 0.00 | 65 | 1010.4 |
| 20260506023049 | 69 | 155 | 3.5 | 8.7 | 0.00 | 0.00 | 0.00 | 64 | 1010.5 |
| 20260506021550 | 69 | 144 | 1.7 | 8.7 | 0.00 | 0.00 | 0.00 | 63 | 1010.5 |
| 20260506020046 | 69 | 181 | 1.7 | 8.7 | 0.00 | 0.00 | 0.00 | 62 | 1010.5 |
| 20260506014543 | 69 | 0 | 0.9 | 7.8 | 0.00 | 0.00 | 0.00 | 61 | 1010.5 |
| 20260506013046 | 69 | 142 | 1.7 | 8.7 | 0.00 | 0.00 | 0.00 | 60 | 1010.3 |
| 20260506011554 | 69 | 178 | 0.9 | 8.7 | 0.00 | 0.00 | 0.00 | 59 | 1010.1 |
| 20260506010054 | 69 | 153 | 2.6 | 7.0 | 0.00 | 0.00 | 0.00 | 58 | 1010.0 |
| 20260506004620 | 69 | 178 | 2.6 | 8.7 | 0.00 | 0.00 | 0.00 | 57 | 1009.9 |
| 20260506003045 | 69 | 178 | 4.3 | 10.4 | 0.00 | 0.00 | 0.00 | 57 | 1010.1 |
| 20260506001546 | 69 | 152 | 1.7 | 8.7 | 0.00 | 0.00 | 0.00 | 56 | 1010.3 |
| 20260506000054 | 69 | 151 | 2.6 | 8.7 | 0.00 | 0.00 | 0.00 | 54 | 1010.3 |
| 20260505234611 | 69 | 158 | 2.6 | 8.7 | 0.00 | 0.00 | 0.00 | 54 | 1010.3 |
| 20260505233045 | 70 | 160 | 2.6 | 14.8 | 0.00 | 0.00 | 0.00 | 54 | 1010.2 |
| 20260505231550 | 70 | 166 | 6.1 | 13.9 | 0.00 | 0.00 | 0.00 | 54 | 1009.7 |
| 20260505230050 | 71 | 158 | 5.2 | 18.2 | 0.00 | 0.00 | 0.00 | 51 | 1010.4 |